• In Belgien
  • Länderverzeichnis
  • Für 7 Tage
  • Wassertemperatur
  • Satellitenkarten
  • Wetterkarte
  • Widgets
  • user-avatar
    Anmelden

    Stündliche Wetter Townsville

    Heute, 23 Juli, Sonntag

    Zeit Temperatur Niederschläge Wind Luftdruck Luftfeuchtigkeit
    00:00 +17°C° 0 mm 3 m/S 757 mmHg 90%
    01:00 +17°C° 0 mm 3 m/S 757 mmHg 91%
    02:00 +17°C° 0 mm 3 m/S 757 mmHg 92%
    03:00 +17°C° 0 mm 3 m/S 757 mmHg 93%
    04:00 +17°C° 0 mm 2 m/S 757 mmHg 95%
    05:00 +17°C° 0 mm 3 m/S 757 mmHg 95%
    06:00 +17°C° 0 mm 3 m/S 757 mmHg 96%
    07:00 +17°C° 0 mm 3 m/S 757 mmHg 96%
    08:00 +19°C° 0 mm 3 m/S 757 mmHg 86%
    09:00 +21°C° 0 mm 3 m/S 758 mmHg 76%
    10:00 +25°C° 0 mm 3 m/S 758 mmHg 65%
    11:00 +26°C° 0 mm 3 m/S 757 mmHg 61%
    12:00 +27°C° 0 mm 4 m/S 757 mmHg 56%
    13:00 +28°C° 0 mm 4 m/S 756 mmHg 51%
    14:00 +28°C° 0 mm 4 m/S 756 mmHg 54%
    15:00 +27°C° 0 mm 4 m/S 755 mmHg 56%
    16:00 +27°C° 0 mm 4 m/S 755 mmHg 59%
    17:00 +25°C° 0 mm 4 m/S 755 mmHg 68%
    18:00 +22°C° 0 mm 3 m/S 756 mmHg 77%
    19:00 +20°C° 0 mm 3 m/S 756 mmHg 86%
    20:00 +19°C° 0 mm 3 m/S 756 mmHg 89%
    21:00 +19°C° 0 mm 3 m/S 757 mmHg 91%
    22:00 +18°C° 0 mm 3 m/S 757 mmHg 93%
    23:00 +18°C° 0 mm 3 m/S 757 mmHg 93%

    Morgen, 24 Juli, Montag

    Zeit Temperatur Niederschläge Wind Luftdruck Luftfeuchtigkeit
    00:00 +18°C° 0 mm 4 m/S 757 mmHg 94%
    01:00 +18°C° 0 mm 4 m/S 757 mmHg 95%
    02:00 +18°C° 0 mm 4 m/S 757 mmHg 95%
    03:00 +18°C° 0 mm 4 m/S 757 mmHg 95%
    04:00 +18°C° 0 mm 3 m/S 757 mmHg 96%
    05:00 +18°C° 0 mm 3 m/S 757 mmHg 96%
    06:00 +17°C° 0 mm 3 m/S 757 mmHg 97%
    07:00 +17°C° 0 mm 3 m/S 758 mmHg 97%
    08:00 +20°C° 0 mm 4 m/S 758 mmHg 86%
    09:00 +22°C° 0 mm 4 m/S 758 mmHg 74%
    10:00 +25°C° 0 mm 4 m/S 759 mmHg 63%
    11:00 +26°C° 0 mm 4 m/S 758 mmHg 57%
    12:00 +27°C° 0 mm 5 m/S 758 mmHg 51%
    13:00 +28°C° 0 mm 5 m/S 757 mmHg 45%
    14:00 +28°C° 0 mm 5 m/S 756 mmHg 48%
    15:00 +28°C° 0 mm 5 m/S 756 mmHg 50%
    16:00 +27°C° 0 mm 6 m/S 755 mmHg 53%
    17:00 +25°C° 0 mm 5 m/S 756 mmHg 62%
    18:00 +22°C° 0 mm 5 m/S 756 mmHg 71%
    19:00 +20°C° 0 mm 5 m/S 757 mmHg 81%
    20:00 +20°C° 0 mm 5 m/S 757 mmHg 83%
    21:00 +19°C° 0 mm 5 m/S 758 mmHg 85%
    22:00 +19°C° 0 mm 5 m/S 758 mmHg 87%
    23:00 +17°C° 0 mm 5 m/S 758 mmHg 88%

    übermorgen, 25 Juli, Dienstag

    Zeit Temperatur Niederschläge Wind Luftdruck Luftfeuchtigkeit
    00:00 +17°C° 0 mm 5 m/S 758 mmHg 90%
    01:00 +18°C° 0 mm 4 m/S 758 mmHg 92%
    02:00 +17°C° 0 mm 4 m/S 758 mmHg 93%
    03:00 +17°C° 0 mm 4 m/S 758 mmHg 94%
    04:00 +17°C° 0 mm 4 m/S 757 mmHg 94%
    05:00 +17°C° 0 mm 4 m/S 758 mmHg 95%
    06:00 +15°C° 0 mm 4 m/S 758 mmHg 95%
    07:00 +15°C° 0 mm 4 m/S 758 mmHg 95%
    08:00 +19°C° 0 mm 5 m/S 759 mmHg 83%
    09:00 +21°C° 0 mm 5 m/S 759 mmHg 70%
    10:00 +23°C° 0 mm 5 m/S 759 mmHg 58%
    11:00 +24°C° 0 mm 6 m/S 759 mmHg 53%
    12:00 +26°C° 0 mm 6 m/S 758 mmHg 49%
    13:00 +28°C° 0 mm 6 m/S 757 mmHg 44%
    14:00 +27°C° 0 mm 6 m/S 757 mmHg 46%
    15:00 +27°C° 0 mm 6 m/S 756 mmHg 48%
    16:00 +26°C° 0 mm 6 m/S 756 mmHg 50%
    17:00 +23°C° 0 mm 6 m/S 756 mmHg 58%
    18:00 +22°C° 0 mm 6 m/S 757 mmHg 67%
    19:00 +20°C° 0 mm 5 m/S 757 mmHg 75%
    20:00 +19°C° 0 mm 5 m/S 758 mmHg 78%
    21:00 +19°C° 0 mm 5 m/S 758 mmHg 82%
    22:00 +17°C° 0 mm 5 m/S 759 mmHg 85%
    23:00 +17°C° 0 mm 5 m/S 758 mmHg 88%

    26 Juli, Mittwoch

    Zeit Temperatur Niederschläge Wind Luftdruck Luftfeuchtigkeit
    00:00 +17°C° 0 mm 5 m/S 758 mmHg 90%
    01:00 +16°C° 0 mm 5 m/S 758 mmHg 92%
    02:00 +17°C° 0 mm 4 m/S 758 mmHg 93%
    03:00 +15°C° 0 mm 4 m/S 758 mmHg 94%
    04:00 +15°C° 0 mm 4 m/S 757 mmHg 96%
    05:00 +15°C° 0,1 mm 4 m/S 758 mmHg 95%
    06:00 +15°C° 0,1 mm 4 m/S 758 mmHg 95%
    07:00 +15°C° 0,1 mm 4 m/S 758 mmHg 95%
    08:00 +17°C° 0,1 mm 5 m/S 759 mmHg 84%
    09:00 +21°C° 0,1 mm 5 m/S 759 mmHg 72%
    10:00 +25°C° 0,1 mm 5 m/S 759 mmHg 61%
    11:00 +25°C° 0 mm 5 m/S 759 mmHg 57%
    12:00 +26°C° 0 mm 6 m/S 758 mmHg 54%
    13:00 +27°C° 0 mm 6 m/S 757 mmHg 50%
    14:00 +27°C° 0 mm 6 m/S 757 mmHg 53%
    15:00 +26°C° 0 mm 6 m/S 757 mmHg 55%
    16:00 +26°C° 0 mm 6 m/S 756 mmHg 57%
    17:00 +23°C° 0 mm 6 m/S 757 mmHg 66%
    18:00 +21°C° 0 mm 6 m/S 757 mmHg 75%
    19:00 +20°C° 0 mm 5 m/S 758 mmHg 83%
    20:00 +19°C° 0 mm 5 m/S 758 mmHg 84%
    21:00 +19°C° 0 mm 5 m/S 758 mmHg 85%
    22:00 +19°C° 0 mm 5 m/S 759 mmHg 86%
    23:00 +17°C° 0 mm 5 m/S 758 mmHg 87%

    27 Juli, Donnerstag

    Zeit Temperatur Niederschläge Wind Luftdruck Luftfeuchtigkeit
    00:00 +16°C° 0 mm 5 m/S 758 mmHg 88%
    01:00 +17°C° 0 mm 4 m/S 758 mmHg 89%
    02:00 +15°C° 0 mm 4 m/S 758 mmHg 87%
    03:00 +15°C° 0 mm 5 m/S 758 mmHg 86%
    04:00 +14°C° 0 mm 5 m/S 757 mmHg 84%
    05:00 +15°C° 0 mm 5 m/S 758 mmHg 82%
    06:00 +15°C° 0 mm 5 m/S 758 mmHg 79%
    07:00 +15°C° 0 mm 5 m/S 759 mmHg 77%
    08:00 +17°C° 0,1 mm 5 m/S 759 mmHg 74%
    09:00 +21°C° 0,1 mm 6 m/S 759 mmHg 71%
    10:00 +23°C° 0,1 mm 6 m/S 760 mmHg 69%
    11:00 +23°C° 0,1 mm 6 m/S 759 mmHg 66%
    12:00 +24°C° 0,1 mm 6 m/S 758 mmHg 64%
    13:00 +26°C° 0,1 mm 6 m/S 758 mmHg 62%
    14:00 +26°C° 0 mm 6 m/S 757 mmHg 57%
    15:00 +27°C° 0 mm 6 m/S 757 mmHg 53%
    16:00 +27°C° 0 mm 6 m/S 757 mmHg 48%
    17:00 +24°C° 0 mm 6 m/S 757 mmHg 55%
    18:00 +22°C° 0 mm 6 m/S 758 mmHg 61%
    19:00 +20°C° 0 mm 6 m/S 758 mmHg 68%
    20:00 +19°C° 0 mm 6 m/S 758 mmHg 73%
    21:00 +17°C° 0 mm 5 m/S 759 mmHg 78%
    22:00 +17°C° 0 mm 5 m/S 759 mmHg 83%
    23:00 +16°C° 0 mm 5 m/S 759 mmHg 85%

    28 Juli, Freitag

    Zeit Temperatur Niederschläge Wind Luftdruck Luftfeuchtigkeit
    00:00 +16°C° 0 mm 5 m/S 759 mmHg 88%
    01:00 +15°C° 0 mm 5 m/S 759 mmHg 91%
    02:00 +15°C° 0 mm 4 m/S 758 mmHg 92%
    03:00 +15°C° 0 mm 4 m/S 758 mmHg 93%
    04:00 +15°C° 0 mm 4 m/S 758 mmHg 94%
    05:00 +15°C° 0 mm 4 m/S 758 mmHg 94%
    06:00 +15°C° 0 mm 4 m/S 759 mmHg 95%
    07:00 +14°C° 0 mm 4 m/S 759 mmHg 95%
    08:00 +18°C° 0 mm 4 m/S 759 mmHg 83%
    09:00 +21°C° 0 mm 5 m/S 759 mmHg 71%
    10:00 +25°C° 0 mm 5 m/S 760 mmHg 59%
    11:00 +26°C° 0 mm 5 m/S 759 mmHg 55%
    12:00 +27°C° 0 mm 5 m/S 758 mmHg 50%
    13:00 +28°C° 0 mm 5 m/S 757 mmHg 46%
    14:00 +27°C° 0 mm 6 m/S 757 mmHg 47%
    15:00 +27°C° 0 mm 6 m/S 757 mmHg 48%
    16:00 +27°C° 0 mm 6 m/S 757 mmHg 49%
    17:00 +25°C° 0 mm 5 m/S 757 mmHg 58%
    18:00 +22°C° 0 mm 5 m/S 758 mmHg 67%
    19:00 +20°C° 0 mm 5 m/S 758 mmHg 76%
    20:00 +19°C° 0 mm 5 m/S 758 mmHg 79%
    21:00 +19°C° 0 mm 5 m/S 758 mmHg 83%
    22:00 +18°C° 0 mm 4 m/S 759 mmHg 87%
    23:00 +18°C° 0 mm 4 m/S 759 mmHg 89%
    Mehr zeigen